TimeCST,TemperatureF,Dew PointF,Humidity,Sea Level PressureIn,VisibilityMPH,Wind Direction,Wind SpeedMPH,Gust SpeedMPH,PrecipitationIn,Events,Conditions,WindDirDegrees,DateUTC
12:13 AM,12.2,5.0,73,30.33,10.0,Calm,Calm,-,N/A,,Clear,0,2012-12-05 06:13:00
12:33 AM,10.4,3.2,73,30.34,10.0,Calm,Calm,-,N/A,,Clear,0,2012-12-05 06:33:00
12:53 AM,10.4,3.2,73,30.35,10.0,Calm,Calm,-,N/A,,Clear,0,2012-12-05 06:53:00
1:13 AM,8.6,3.2,79,30.33,10.0,Calm,Calm,-,N/A,,Clear,0,2012-12-05 07:13:00
1:53 AM,8.6,3.2,79,30.35,10.0,WNW,3.5,-,N/A,,Clear,300,2012-12-05 07:53:00
2:13 AM,8.6,3.2,79,30.36,10.0,Calm,Calm,-,N/A,,Clear,0,2012-12-05 08:13:00
2:33 AM,8.6,3.2,79,30.36,10.0,Calm,Calm,-,N/A,,Clear,0,2012-12-05 08:33:00
2:53 AM,6.8,1.4,79,30.36,10.0,Calm,Calm,-,N/A,,Clear,0,2012-12-05 08:53:00
3:13 AM,5.0,-0.4,78,30.35,10.0,Calm,Calm,-,N/A,,Clear,0,2012-12-05 09:13:00
3:53 AM,3.2,-0.4,85,30.34,10.0,Calm,Calm,-,N/A,,Clear,0,2012-12-05 09:53:00
4:13 AM,5.0,-0.4,78,30.35,10.0,Calm,Calm,-,N/A,,Clear,0,2012-12-05 10:13:00
4:33 AM,3.2,-0.4,85,30.36,10.0,Calm,Calm,-,N/A,,Clear,0,2012-12-05 10:33:00
4:53 AM,3.2,-0.4,85,30.37,10.0,Calm,Calm,-,N/A,,Clear,0,2012-12-05 10:53:00
5:13 AM,3.2,-0.4,85,30.37,10.0,Calm,Calm,-,N/A,,Clear,0,2012-12-05 11:13:00
5:33 AM,3.2,-0.4,85,30.37,10.0,Calm,Calm,-,N/A,,Clear,0,2012-12-05 11:33:00
5:53 AM,3.2,-2.2,78,30.36,10.0,Calm,Calm,-,N/A,,Clear,0,2012-12-05 11:53:00
6:13 AM,3.2,-2.2,78,30.36,10.0,Calm,Calm,-,N/A,,Clear,0,2012-12-05 12:13:00
6:33 AM,3.2,-2.2,78,30.36,10.0,Calm,Calm,-,N/A,,Clear,0,2012-12-05 12:33:00
6:53 AM,3.2,-2.2,78,30.36,10.0,Calm,Calm,-,N/A,,Clear,0,2012-12-05 12:53:00
8:53 AM,12.2,8.6,85,30.36,10.0,Calm,Calm,-,N/A,,Scattered Clouds,0,2012-12-05 14:53:00
9:13 AM,14.0,10.4,86,30.34,10.0,Calm,Calm,-,N/A,,Clear,0,2012-12-05 15:13:00
9:33 AM,15.8,10.4,79,30.35,10.0,Calm,Calm,-,N/A,,Clear,0,2012-12-05 15:33:00
9:53 AM,17.6,14.0,86,30.34,10.0,Calm,Calm,-,N/A,,Clear,0,2012-12-05 15:53:00
10:13 AM,19.4,15.8,86,30.33,10.0,Calm,Calm,-,N/A,,Clear,0,2012-12-05 16:13:00
10:33 AM,23.0,17.6,80,30.33,10.0,Calm,Calm,-,N/A,,Clear,0,2012-12-05 16:33:00
10:54 AM,24.8,15.8,69,30.31,10.0,South,8.1,-,N/A,,Clear,170,2012-12-05 16:54:00
11:14 AM,24.8,15.8,69,30.28,10.0,SSE,8.1,-,N/A,,Clear,150,2012-12-05 17:14:00
11:33 AM,24.8,15.8,69,30.28,10.0,South,9.2,-,N/A,,Clear,170,2012-12-05 17:33:00
11:53 AM,26.6,15.8,64,30.25,10.0,South,9.2,-,N/A,,Clear,190,2012-12-05 17:53:00
12:13 PM,26.6,14.0,59,30.24,10.0,SSE,10.4,-,N/A,,Clear,160,2012-12-05 18:13:00
12:33 PM,24.8,14.0,64,30.24,10.0,SSE,8.1,-,N/A,,Clear,150,2012-12-05 18:33:00
12:53 PM,24.8,14.0,64,30.24,10.0,SSE,6.9,-,N/A,,Clear,150,2012-12-05 18:53:00
1:13 PM,24.8,14.0,64,30.23,10.0,SSE,6.9,-,N/A,,Clear,160,2012-12-05 19:13:00
1:33 PM,24.8,15.8,69,30.21,10.0,SSE,6.9,-,N/A,,Clear,150,2012-12-05 19:33:00
1:53 PM,26.6,15.8,64,30.20,10.0,South,6.9,-,N/A,,Clear,180,2012-12-05 19:53:00
2:13 PM,26.6,15.8,64,30.18,10.0,South,5.8,-,N/A,,Clear,170,2012-12-05 20:13:00
2:34 PM,26.6,15.8,64,30.17,10.0,SSE,3.5,-,N/A,,Clear,150,2012-12-05 20:34:00
2:53 PM,26.6,15.8,64,30.15,10.0,SE,5.8,-,N/A,,Clear,140,2012-12-05 20:53:00
3:13 PM,26.6,14.0,59,30.15,10.0,ESE,8.1,-,N/A,,Clear,110,2012-12-05 21:13:00
3:33 PM,24.8,14.0,64,30.13,10.0,ESE,8.1,-,N/A,,Clear,120,2012-12-05 21:33:00
3:53 PM,24.8,15.8,69,30.11,10.0,ESE,6.9,-,N/A,,Clear,110,2012-12-05 21:53:00
4:13 PM,24.8,15.8,69,30.11,10.0,ESE,6.9,-,N/A,,Clear,110,2012-12-05 22:13:00
4:33 PM,26.6,15.8,64,30.10,10.0,ESE,6.9,-,N/A,,Scattered Clouds,110,2012-12-05 22:33:00
4:53 PM,26.6,15.8,64,30.09,10.0,ESE,4.6,-,N/A,,Overcast,120,2012-12-05 22:53:00
5:13 PM,26.6,15.8,64,30.07,10.0,ESE,8.1,-,N/A,,Overcast,120,2012-12-05 23:13:00
5:33 PM,26.6,15.8,64,30.06,10.0,SE,9.2,-,N/A,,Overcast,130,2012-12-05 23:33:00
5:53 PM,28.4,15.8,59,30.04,10.0,SE,5.8,-,N/A,,Overcast,130,2012-12-05 23:53:00
6:13 PM,28.4,15.8,59,30.03,10.0,ESE,6.9,-,N/A,,Overcast,120,2012-12-06 00:13:00
6:33 PM,28.4,14.0,55,30.01,10.0,ESE,6.9,-,N/A,,Overcast,120,2012-12-06 00:33:00
6:53 PM,28.4,15.8,59,29.99,10.0,ESE,6.9,-,N/A,,Scattered Clouds,110,2012-12-06 00:53:00
7:13 PM,28.4,14.0,55,29.97,10.0,ESE,6.9,-,N/A,,Mostly Cloudy,120,2012-12-06 01:13:00
7:33 PM,28.4,15.8,59,29.96,10.0,ESE,6.9,-,N/A,,Scattered Clouds,110,2012-12-06 01:33:00
7:53 PM,28.4,15.8,59,29.95,10.0,ESE,5.8,-,N/A,,Overcast,120,2012-12-06 01:53:00
8:13 PM,28.4,15.8,59,29.94,10.0,SE,5.8,-,N/A,,Scattered Clouds,130,2012-12-06 02:13:00
8:33 PM,28.4,15.8,59,29.92,10.0,SE,5.8,-,N/A,,Overcast,130,2012-12-06 02:33:00
8:53 PM,28.4,15.8,59,29.92,10.0,SE,4.6,-,N/A,,Scattered Clouds,140,2012-12-06 02:53:00
9:13 PM,28.4,15.8,59,29.92,10.0,SE,3.5,-,N/A,,Scattered Clouds,140,2012-12-06 03:13:00
9:33 PM,28.4,15.8,59,29.90,10.0,SE,3.5,-,N/A,,Mostly Cloudy,140,2012-12-06 03:33:00
9:53 PM,30.2,15.8,55,29.90,10.0,Calm,Calm,-,N/A,,Scattered Clouds,0,2012-12-06 03:53:00
10:13 PM,30.2,15.8,55,29.88,10.0,SSE,4.6,-,N/A,,Scattered Clouds,160,2012-12-06 04:13:00
10:33 PM,30.2,15.8,55,29.86,10.0,South,5.8,-,N/A,,Scattered Clouds,180,2012-12-06 04:33:00
10:53 PM,30.2,17.6,60,29.85,10.0,South,8.1,-,N/A,,Mostly Cloudy,190,2012-12-06 04:53:00
11:13 PM,32.0,15.8,51,29.85,10.0,South,9.2,-,N/A,,Mostly Cloudy,190,2012-12-06 05:13:00
11:33 PM,32.0,17.6,55,29.84,10.0,South,5.8,-,N/A,,Mostly Cloudy,180,2012-12-06 05:33:00
11:53 PM,32.0,17.6,55,29.84,10.0,South,5.8,-,N/A,,Overcast,190,2012-12-06 05:53:00